CYGFM01

Last updated on Wed Sep 17 2025 00:02:22 GMT+0000 (Coordinated Universal Time)

1 41887U 16078D 25259.35936165 .00017096 00000+0 36881-3 0 9992 2 41887 34.9430 258.9421 0007147 80.1434 280.0092 15.43622448486179
UTC large
Height (km)
Speed (km/s)
/
Latitude / Longitude
Inclination (degrees)
Orbital Period (minutes)
Azimuth
Elevation
Range (km)
Doppler Factor

Next 0 passes for location: London (51.5072 / 0.1276)

Sorry there are no passes over London.